Lancaster, PA

12:40 AM EDT on May 30, 2017 (GMT -0400)
Lancaster

Weather History for KLNS - February, 2012

Change the Weather History Date:

Sunday, February 5, 2012

  Actual Average Record
Temperature  
Mean Temperature 34 °F -  
Max Temperature 41 °F 38 °F 64 °F (1991)
Min Temperature 26 °F 22 °F 5 °F (1978)
Degree Days  
Heating Degree Days 30    
Moisture  
Dew Point 24 °F    
Average Humidity 66    
Maximum Humidity 92    
Minimum Humidity 49    
Precipitation  
Precipitation 0.00 in - - ()
Sea Level Pressure  
Sea Level Pressure 30.16 in    
Wind  
Wind Speed 4 mph (North)    
Max Wind Speed 12 mph    
Max Gust Speed 17 mph    
Visibility 9 miles    
Events      
Averages and records for this station are not official NWS values.
T = Trace of Precipitation, MM = Missing Value Source: NWS Daily Summary

Daily Weather History Graph

Daily Weather History Graph

Search for Another Location

Airport or City:

Trip Planner

Search our weather history database for the weather conditions in past years. The results will help you decide how hot, cold, wet, or windy it might be!

Date:

Astronomy

Feb. 05, 2012 Rise Set
Actual Time 7:10 AM EST 5:28 PM EST
Civil Twilight 6:42 AM EST 5:56 PM EST
Nautical Twilight 6:09 AM EST 6:29 PM EST
Astronomical Twilight 5:38 AM EST 7:00 PM EST
Moon 3:24 PM EST (2/5) 5:19 AM EST (2/5)
Length of Visible Light 11h 14m
Length of Day
10h 17m
Waxing Gibbous, 94% of the Moon is Illuminated
Feb 5
Waxing Gibbous
Feb 7
Full
Feb 14
Last Quarter
Feb 21
New
Feb 29
First Quarter

Hourly Weather History & Observations

Time (EST) Temp. Windchill Dew Point Humidity Pressure Visibility Wind Dir Wind Speed Gust Speed Precip Events Conditions
12:53 AM 33.1 °F - 30.9 °F 92% 30.11 in 4.0 mi Calm Calm - N/A   Partly Cloudy
1:53 AM 33.1 °F - 30.9 °F 92% 30.11 in 4.0 mi Calm Calm - N/A   Overcast
2:53 AM 33.1 °F - 28.9 °F 85% 30.12 in 5.0 mi Calm Calm - N/A   Mostly Cloudy
3:53 AM 34.0 °F 31.0 °F 27.0 °F 75% 30.11 in 9.0 mi NE 3.5 mph - N/A   Overcast
4:53 AM 34.0 °F 28.8 °F 25.0 °F 70% 30.10 in 10.0 mi NE 5.8 mph - N/A   Overcast
5:53 AM 33.1 °F 26.9 °F 25.0 °F 72% 30.11 in 10.0 mi ENE 6.9 mph - N/A   Overcast
6:53 AM 33.1 °F 28.7 °F 24.1 °F 70% 30.13 in 10.0 mi NE 4.6 mph - N/A   Overcast
7:53 AM 33.1 °F 27.7 °F 24.1 °F 70% 30.14 in 10.0 mi ENE 5.8 mph - N/A   Overcast
8:53 AM 34.0 °F 28.8 °F 24.1 °F 67% 30.16 in 10.0 mi NE 5.8 mph - N/A   Overcast
9:53 AM 35.1 °F 27.9 °F 23.0 °F 61% 30.19 in 10.0 mi NE 9.2 mph - N/A   Partly Cloudy
10:53 AM 37.0 °F 32.4 °F 23.0 °F 57% 30.19 in 10.0 mi NNE 5.8 mph - N/A   Clear
11:53 AM 37.0 °F - 23.0 °F 57% 30.19 in 10.0 mi Calm Calm - N/A   Mostly Cloudy
12:53 PM 39.0 °F 32.8 °F 23.0 °F 53% 30.17 in 10.0 mi North 9.2 mph - N/A   Mostly Cloudy
1:53 PM 41.0 °F 35.8 °F 24.1 °F 51% 30.14 in 10.0 mi WNW 8.1 mph 17.3 mph N/A   Mostly Cloudy
2:53 PM 41.0 °F 34.3 °F 23.0 °F 49% 30.14 in 10.0 mi NW 11.5 mph - N/A   Mostly Cloudy
3:53 PM 41.0 °F 35.2 °F 23.0 °F 49% 30.14 in 10.0 mi NW 9.2 mph - N/A   Clear
4:53 PM 39.0 °F 31.8 °F 23.0 °F 53% 30.16 in 10.0 mi NW 11.5 mph - N/A   Clear
5:53 PM 36.0 °F 30.3 °F 21.9 °F 57% 30.19 in 10.0 mi NNW 6.9 mph - N/A   Partly Cloudy
6:53 PM 35.1 °F 30.1 °F 21.9 °F 59% 30.19 in 10.0 mi North 5.8 mph - N/A   Clear
7:53 PM 34.0 °F - 21.9 °F 61% 30.20 in 10.0 mi Calm Calm - N/A   Clear
8:53 PM 33.1 °F - 21.9 °F 64% 30.22 in 10.0 mi Calm Calm - N/A   Clear
9:53 PM 28.9 °F - 21.9 °F 75% 30.22 in 10.0 mi Calm Calm - N/A   Clear
10:53 PM 28.9 °F 25.2 °F 21.9 °F 75% 30.21 in 10.0 mi West 3.5 mph - N/A   Clear
11:53 PM 26.1 °F 20.5 °F 19.9 °F 78% 30.21 in 9.0 mi WNW 4.6 mph - N/A   Clear